FW4479 Weather Reports


time (UTC)temp
F
wind
direction
speed
knots
gust
knots
rain 1hr
in
rain 24hr
in
rain mn
in
humidity
%
barometer
mb
20260507075529 35 278 0.0 0.0 0.00 0.80 0.00 71 1012.9
20260507075029 35 278 0.0 0.0 0.00 0.80 0.00 71 1012.9
20260507074530 35 278 0.0 0.0 0.00 0.80 0.00 70 1013.0
20260507074027 35 278 0.0 0.0 0.00 0.80 0.00 70 1013.1
20260507073527 35 278 0.0 0.0 0.00 0.80 0.00 70 1013.1
20260507073027 35 278 0.0 0.0 0.00 0.80 0.00 70 1013.0
20260507072525 36 278 0.0 0.0 0.00 0.80 0.00 69 1013.1
20260507072023 36 278 0.0 0.0 0.00 0.80 0.00 69 1013.2
20260507071522 37 278 0.0 0.0 0.00 0.80 0.00 69 1013.0
20260507071025 37 278 0.0 0.0 0.00 0.80 0.00 69 1013.0
20260507070520 38 278 0.0 0.0 0.00 0.80 0.00 68 1012.9
20260507070017 38 278 0.0 0.0 0.00 0.80 0.00 68 1013.1
20260507065519 39 278 0.0 0.0 0.00 0.93 0.00 68 1013.0
20260507065016 39 278 0.0 0.0 0.00 0.93 0.00 67 1012.9
20260507064517 39 278 0.0 0.9 0.00 0.93 0.00 67 1012.9
20260507064014 40 278 0.0 2.6 0.00 0.93 0.00 66 1012.9
20260507063513 40 250 0.0 2.6 0.00 0.93 0.00 66 1012.9
20260507063015 40 249 0.0 1.7 0.00 0.93 0.00 67 1013.0
20260507062514 40 249 0.9 1.7 0.00 0.93 0.00 66 1012.9
20260507062012 40 284 0.0 0.0 0.00 0.93 0.00 66 1012.9
20260507061512 40 284 0.0 1.7 0.00 0.93 0.00 66 1013.0
20260507061011 40 284 0.0 1.7 0.00 0.93 0.00 65 1013.2
20260507060509 40 285 0.0 1.7 0.00 0.93 0.00 64 1013.4
20260507060009 40 294 0.0 2.6 0.00 0.93 0.00 64 1013.3
20260507055509 40 293 0.0 2.6 0.00 1.00 0.00 63 1013.3
20260507055008 40 285 0.0 2.6 0.00 1.00 0.00 63 1013.3
20260507054510 41 298 0.0 2.6 0.00 1.00 0.00 64 1013.5
20260507054010 41 297 0.9 2.6 0.00 1.00 0.00 63 1013.5
20260507053509 41 276 0.9 4.3 0.00 1.00 0.00 64 1013.5
20260507053008 41 328 0.9 4.3 0.00 1.00 0.00 63 1013.4
20260507052507 41 314 0.0 4.3 0.00 1.00 0.00 64 1013.4
20260507052007 41 291 1.7 4.3 0.00 1.00 0.00 64 1013.5
20260507051506 41 291 0.9 3.5 0.00 1.00 0.00 65 1013.6
20260507051007 41 309 1.7 4.3 0.00 1.00 0.00 65 1013.5
20260507050504 41 321 1.7 4.3 0.00 1.00 0.00 65 1013.4
20260507050004 41 294 0.9 4.3 0.00 1.28 0.00 66 1013.5
20260507045504 41 296 0.0 5.2 0.00 1.28 0.00 66 1013.6
20260507045003 41 297 1.7 5.2 0.00 1.28 0.00 66 1013.6
20260507044502 41 274 1.7 5.2 0.00 1.28 0.00 67 1013.6
20260507044002 41 292 1.7 5.2 0.00 1.28 0.00 67 1013.6
20260507043501 41 285 0.0 5.2 0.00 1.28 0.00 68 1013.6
20260507043001 41 290 1.7 5.2 0.00 1.28 0.00 67 1013.4
20260507042559 42 292 1.7 3.5 0.00 1.28 0.00 68 1013.4
20260507042059 42 313 1.7 3.5 0.00 1.28 0.00 68 1013.3
20260507041607 42 303 0.9 4.3 0.00 1.28 0.00 69 1013.3
20260507041059 42 298 0.9 6.1 0.00 1.28 0.00 69 1013.3
20260507040557 41 296 1.7 6.1 0.00 1.28 0.00 69 1013.2
20260507040104 42 297 1.7 5.2 0.00 1.28 0.00 69 1013.2
20260507035555 42 287 2.6 5.2 0.00 1.35 1.28 70 1013.1
20260507035055 42 302 1.7 5.2 0.00 1.35 1.28 70 1013.1
20260507034558 42 269 2.6 5.2 0.00 1.35 1.28 70 1013.1
20260507034053 42 269 2.6 4.3 0.00 1.35 1.28 70 1013.1
20260507033553 42 264 1.7 4.3 0.00 1.35 1.28 70 1013.1
20260507033056 42 265 1.7 5.2 0.00 1.35 1.28 70 1012.9
20260507032553 42 255 1.7 5.2 0.00 1.35 1.28 70 1012.9
20260507032052 42 266 1.7 5.2 0.00 1.35 1.28 70 1012.9
20260507031555 41 250 2.6 5.2 0.00 1.35 1.28 69 1012.9
20260507031052 42 307 2.6 5.2 0.00 1.35 1.28 70 1013.0
20260507030549 42 280 1.7 4.3 0.00 1.35 1.28 70 1012.9
20260507030053 42 231 0.9 4.3 0.00 1.35 1.28 70 1012.8
20260507025548 42 269 0.0 2.6 0.00 1.45 1.28 70 1012.8
20260507025048 42 293 0.9 6.1 0.00 1.45 1.28 70 1012.7
20260507024549 42 281 2.6 6.1 0.00 1.45 1.28 70 1012.7
20260507024048 42 286 2.6 6.1 0.00 1.45 1.28 70 1013.0
20260507023552 42 286 2.6 5.2 0.00 1.45 1.28 70 1012.8
20260507023048 42 288 0.9 6.1 0.00 1.45 1.28 70 1012.8
20260507022548 42 250 0.9 7.0 0.00 1.45 1.28 70 1012.7
20260507022048 42 281 1.7 7.0 0.00 1.45 1.28 70 1012.7
20260507021547 43 300 0.9 4.3 0.00 1.45 1.28 71 1012.8
20260507021046 43 296 2.6 4.3 0.00 1.45 1.28 70 1012.8
20260507020545 43 307 1.7 6.1 0.00 1.45 1.28 70 1012.8
20260507020056 43 288 2.6 7.0 0.00 1.45 1.28 70 1012.9
20260507015544 43 300 1.7 7.0 0.00 1.56 1.28 71 1012.9
20260507015044 43 282 3.5 7.0 0.00 1.56 1.28 70 1012.9
20260507014549 43 303 3.5 8.7 0.00 1.56 1.28 70 1012.7
20260507014043 43 315 5.2 8.7 0.00 1.56 1.28 70 1012.5
20260507013545 43 318 2.6 7.8 0.00 1.56 1.28 70 1012.7
20260507013041 43 276 2.6 5.2 0.00 1.56 1.28 70 1012.7
20260507012542 44 295 2.6 6.1 0.00 1.56 1.28 70 1012.6
20260507012041 44 302 2.6 7.0 0.00 1.56 1.28 70 1012.7
20260507011548 44 278 2.6 7.0 0.00 1.56 1.28 70 1012.7
20260507011039 44 322 1.7 7.0 0.00 1.56 1.28 70 1012.6
20260507010539 44 321 2.6 6.1 0.00 1.56 1.28 70 1012.5
20260507010038 44 283 2.6 8.7 0.00 1.56 1.28 70 1012.4
20260507005538 44 308 4.3 8.7 0.00 1.75 1.28 70 1012.3
20260507005039 44 262 3.5 7.8 0.00 1.75 1.28 69 1012.3
20260507004536 45 280 3.5 12.2 0.00 1.75 1.28 69 1012.1
20260507004035 45 283 6.1 12.2 0.00 1.75 1.28 69 1012.1
20260507003537 45 321 3.5 8.7 0.00 1.75 1.28 69 1011.9
20260507003033 45 295 3.5 8.7 0.00 1.75 1.28 69 1011.7
20260507002534 46 316 4.3 9.6 0.00 1.75 1.28 69 1011.8
20260507002033 46 304 5.2 13.0 0.00 1.75 1.28 68 1011.7
20260507001546 47 286 6.1 14.8 0.00 1.75 1.28 67 1011.8
20260507001031 47 319 7.0 14.8 0.00 1.75 1.28 68 1011.3
20260507000530 47 232 1.7 4.3 0.00 1.75 1.28 68 1011.1
20260507000029 47 240 0.0 2.6 0.00 1.75 1.28 67 1011.2
20260506235530 47 240 0.9 2.6 0.00 1.80 1.28 67 1011.2
20260506235030 47 245 0.9 1.7 0.00 1.80 1.28 67 1011.1
20260506234538 48 245 0.9 1.7 0.00 1.80 1.28 67 1011.1
20260506234029 48 249 0.0 0.0 0.00 1.80 1.28 68 1011.1
20260506233529 48 249 0.0 0.0 0.00 1.80 1.28 67 1011.0
20260506233029 48 249 0.0 0.0 0.00 1.80 1.28 67 1011.0
20260506232527 48 249 0.0 0.0 0.00 1.80 1.28 67 1010.9
20260506232027 48 249 0.0 0.9 0.00 1.80 1.28 67 1010.9
20260506231533 48 249 0.0 1.7 0.00 1.80 1.28 66 1010.9
20260506231027 48 249 0.0 1.7 0.00 1.80 1.28 66 1010.9
20260506230525 48 245 0.0 0.0 0.00 1.80 1.28 66 1010.8
20260506230025 48 245 0.0 0.0 0.00 1.80 1.28 66 1010.9
20260506225525 48 245 0.0 0.0 0.00 1.80 1.28 67 1010.8
20260506225025 48 245 0.0 0.0 0.00 1.80 1.28 66 1010.6
20260506224529 48 245 0.0 1.7 0.00 1.80 1.28 67 1010.8
20260506224024 47 245 0.0 1.7 0.00 1.80 1.28 66 1010.6
20260506223525 48 253 0.0 1.7 0.00 1.80 1.28 66 1010.6
20260506223123 47 253 0.0 2.6 0.00 1.80 1.28 66 1010.4
20260506222523 48 250 0.9 2.6 0.00 1.80 1.28 66 1010.3
20260506222023 48 254 0.0 1.7 0.00 1.80 1.28 66 1010.5
20260506221523 48 258 0.0 1.7 0.00 1.80 1.28 66 1010.3
20260506221022 48 110 0.0 1.7 0.00 1.80 1.28 65 1010.3
20260506220522 48 240 0.0 0.0 0.00 1.80 1.28 66 1010.3
20260506220022 48 240 0.0 2.6 0.00 1.80 1.28 66 1010.2
20260506215521 47 240 0.0 2.6 0.00 1.80 1.28 66 1010.4
20260506215021 47 269 0.0 0.9 0.00 1.80 1.28 66 1010.4
20260506214521 47 269 0.0 2.6 0.00 1.80 1.28 66 1010.4
20260506214020 47 262 0.9 2.6 0.00 1.80 1.28 66 1010.4
20260506213520 47 301 0.0 1.7 0.00 1.80 1.28 67 1010.4
20260506213021 47 304 0.0 3.5 0.00 1.80 1.28 67 1010.5
20260506212522 47 291 0.9 3.5 0.00 1.80 1.28 67 1010.5
20260506212018 47 283 0.0 1.7 0.00 1.80 1.28 67 1010.4
20260506211518 47 284 0.0 0.9 0.00 1.80 1.28 67 1010.3
20260506211017 47 283 0.0 1.7 0.00 1.80 1.28 68 1010.3
20260506210516 47 283 0.0 1.7 0.00 1.80 1.28 67 1010.3
20260506210018 46 311 0.9 2.6 0.00 1.80 1.28 67 1010.4
20260506205517 47 300 0.0 2.6 0.00 1.80 1.28 67 1010.3
20260506205016 47 298 0.0 0.0 0.00 1.80 1.28 68 1010.2
20260506204515 46 298 0.0 1.7 0.00 1.80 1.28 68 1010.1
20260506204018 46 298 0.0 2.6 0.00 1.80 1.28 67 1010.2
20260506203516 47 293 0.9 2.6 0.00 1.80 1.28 68 1010.2
20260506203013 46 323 0.0 3.5 0.00 1.80 1.28 68 1010.3
20260506202513 46 323 0.9 3.5 0.00 1.80 1.28 69 1010.3
20260506202013 46 326 0.0 2.6 0.00 1.80 1.28 70 1010.4
20260506201518 46 320 0.0 2.6 0.00 1.80 1.28 70 1010.4
20260506201011 46 320 0.0 2.6 0.00 1.80 1.28 69 1010.4
20260506200510 46 309 0.0 1.7 0.00 1.80 1.28 71 1010.3
20260506200012 46 323 0.0 2.6 0.00 1.80 1.28 71 1010.3
20260506195510 45 323 0.0 4.3 0.00 1.80 1.28 70 1010.3
20260506195009 46 318 0.9 4.3 0.00 1.80 1.28 70 1010.2
20260506194509 46 309 0.0 1.7 0.00 1.80 1.28 71 1010.1
20260506194008 46 326 0.0 1.7 0.00 1.80 1.28 71 1009.9
20260506193508 46 326 0.0 2.6 0.00 1.80 1.28 72 1009.9
20260506193009 46 323 0.0 2.6 0.00 1.80 1.28 72 1009.9
20260506192508 45 333 0.9 2.6 0.00 1.80 1.28 72 1010.0
20260506192008 45 339 0.0 2.6 0.00 1.80 1.28 72 1010.0
20260506191512 45 338 0.9 2.6 0.00 1.80 1.28 72 1010.1
20260506191008 45 338 0.9 4.3 0.00 1.80 1.28 72 1010.1
20260506190507 45 334 0.9 4.3 0.00 1.80 1.28 72 1010.1
20260506190007 45 345 1.7 5.2 0.00 1.80 1.28 72 1010.0
20260506185506 45 342 2.6 7.0 0.00 1.80 1.28 71 1010.1
20260506185006 45 326 2.6 7.0 0.00 1.80 1.28 71 1010.0
20260506184506 45 325 1.7 4.3 0.00 1.80 1.28 72 1009.9
20260506184005 45 311 0.0 3.5 0.00 1.80 1.28 72 1009.9
20260506183505 45 338 0.0 3.5 0.00 1.80 1.28 72 1009.8
20260506183009 45 34 0.0 3.5 0.00 1.80 1.28 72 1009.7
20260506182504 45 333 0.0 3.5 0.00 1.80 1.28 72 1009.8
20260506182007 45 335 0.9 3.5 0.00 1.80 1.28 72 1009.6
20260506181505 45 340 0.0 3.5 0.00 1.80 1.28 73 1009.7
20260506181004 45 343 0.9 4.3 0.00 1.80 1.28 72 1009.7
20260506180504 45 341 1.7 4.3 0.00 1.80 1.28 72 1009.7
20260506180004 45 347 2.6 4.3 0.00 1.80 1.28 72 1009.8
20260506175502 45 337 1.7 4.3 0.00 1.80 1.28 72 1009.9
20260506175002 45 326 1.7 4.3 0.00 1.80 1.28 72 1009.7
20260506174502 45 325 0.9 4.3 0.00 1.80 1.28 72 1009.5
20260506174003 46 346 1.7 5.2 0.00 1.80 1.28 73 1009.5
20260506173601 46 344 1.7 5.2 0.00 1.80 1.28 73 1009.4
20260506173100 46 319 0.0 4.3 0.00 1.80 1.28 74 1009.3
20260506172559 46 322 0.9 4.3 0.00 1.80 1.28 74 1009.2
20260506172059 46 319 0.0 1.7 0.00 1.80 1.28 74 1009.1
20260506171610 46 69 0.0 3.5 0.00 1.80 1.28 75 1009.1
20260506171059 46 338 0.9 3.5 0.00 1.80 1.28 76 1009.0
20260506170557 46 304 0.0 0.9 0.00 1.80 1.28 76 1009.1
20260506170103 46 278 0.0 3.5 0.00 1.80 1.28 76 1009.0
20260506165600 45 329 1.7 3.5 0.00 1.80 1.28 76 1008.9
20260506165058 45 325 0.0 3.5 0.00 1.80 1.28 76 1009.0
20260506164600 45 20 0.0 5.2 0.00 1.80 1.28 77 1008.8
20260506164157 45 341 1.7 5.2 0.00 1.80 1.28 76 1008.9
20260506163557 45 304 0.9 3.5 0.00 1.80 1.28 76 1008.9
20260506163128 45 355 1.7 3.5 0.00 1.80 1.28 76 1008.8
20260506162556 46 326 0.0 3.5 0.01 1.80 1.28 79 1008.7
20260506162059 45 330 0.9 3.5 0.01 1.80 1.28 78 1008.7
20260506161556 45 338 0.9 2.6 0.01 1.80 1.28 79 1008.8
20260506161056 45 330 0.0 1.7 0.02 1.80 1.28 79 1008.8
20260506160556 45 64 0.0 0.9 0.03 1.80 1.28 80 1008.8
20260506160056 44 64 0.0 1.7 0.03 1.80 1.28 79 1008.8
20260506155556 44 56 0.9 1.7 0.04 1.80 1.28 79 1008.8
20260506155055 44 66 0.0 1.7 0.04 1.80 1.28 79 1008.8
20260506154555 43 66 0.9 1.7 0.04 1.80 1.28 79 1008.8
20260506154057 44 66 0.0 1.7 0.04 1.80 1.28 80 1009.1
20260506153555 43 66 0.0 1.7 0.04 1.80 1.28 79 1008.8
20260506153116 44 64 0.0 1.7 0.05 1.80 1.28 79 1008.9
20260506152557 44 74 0.0 1.7 0.04 1.79 1.27 80 1008.9
20260506152054 43 74 0.0 2.6 0.04 1.79 1.27 80 1008.7
20260506151555 43 68 0.0 2.6 0.04 1.79 1.27 79 1008.7
20260506151054 43 65 0.0 1.7 0.03 1.78 1.26 79 1008.8
20260506150553 43 65 0.0 1.7 0.03 1.77 1.25 80 1008.8
20260506150053 43 65 0.0 2.6 0.03 1.77 1.25 80 1008.8
20260506145554 43 65 0.0 2.6 0.02 1.76 1.24 79 1008.8
20260506145055 43 69 0.0 1.7 0.02 1.76 1.24 79 1008.7
20260506144554 43 72 0.0 0.0 0.02 1.76 1.24 79 1008.5
20260506144053 43 79 0.0 1.7 0.02 1.76 1.24 80 1008.4
20260506143553 43 79 0.0 2.6 0.02 1.76 1.24 80 1008.4
20260506143053 43 56 0.0 2.6 0.01 1.75 1.23 80 1008.3
20260506142553 42 55 0.0 2.6 0.02 1.75 1.23 80 1008.3
20260506142053 42 40 0.9 2.6 0.02 1.75 1.23 80 1008.2
20260506141552 42 77 1.7 2.6 0.02 1.75 1.23 79 1008.1
20260506141052 42 64 0.9 4.3 0.02 1.75 1.23 80 1008.3
20260506140554 42 72 1.7 5.2 0.01 1.74 1.22 79 1008.2
20260506140052 42 37 1.7 4.3 0.01 1.74 1.22 80 1008.4
20260506135551 42 81 0.9 4.3 0.01 1.74 1.22 80 1008.3
20260506135051 42 85 0.9 7.0 0.01 1.74 1.22 80 1008.3
20260506134550 42 103 1.7 7.0 0.02 1.74 1.22 80 1008.2
20260506134050 42 37 1.7 4.3 0.02 1.74 1.22 80 1008.1
20260506133551 42 75 0.9 4.3 0.02 1.74 1.22 80 1008.3
20260506133051 42 103 1.7 6.1 0.03 1.74 1.22 80 1008.1
20260506132550 42 52 2.6 6.1 0.02 1.73 1.21 80 1008.2
20260506132049 42 53 0.9 4.3 0.02 1.73 1.21 80 1008.1
20260506131548 42 78 1.7 4.3 0.03 1.73 1.21 80 1008.1
20260506131048 42 63 1.7 4.3 0.03 1.73 1.21 80 1008.1
20260506130550 42 44 0.9 5.2 0.04 1.73 1.21 80 1008.1
20260506130047 42 70 0.9 5.2 0.05 1.73 1.21 80 1008.1
20260506125546 42 44 0.9 6.1 0.05 1.73 1.21 80 1008.1
20260506125046 42 88 1.7 6.1 0.05 1.73 1.21 80 1008.1
20260506124547 42 45 1.7 4.3 0.05 1.72 1.20 80 1008.3
20260506124045 42 75 0.9 5.2 0.06 1.72 1.20 80 1008.3
20260506123545 41 66 2.6 5.2 0.06 1.72 1.20 80 1008.2
20260506123048 41 96 1.7 4.3 0.06 1.71 1.19 80 1008.4
20260506122547 41 56 2.6 7.8 0.07 1.71 1.19 80 1008.4
20260506122043 42 56 2.6 7.8 0.08 1.71 1.19 80 1008.5
20260506121553 42 55 2.6 7.8 0.07 1.70 1.18 80 1008.4
20260506121043 42 61 1.7 4.3 0.07 1.70 1.18 80 1008.3
20260506120543 42 70 0.9 3.5 0.07 1.69 1.17 80 1008.4
20260506120043 42 75 1.7 4.3 0.06 1.68 1.15 80 1008.2
20260506115542 42 103 0.0 4.3 0.07 1.68 1.15 80 1008.4
20260506115044 42 61 1.7 6.1 0.07 1.68 1.15 80 1008.1
20260506114543 42 49 1.7 6.1 0.07 1.67 1.14 80 1008.0
20260506114042 42 53 1.7 6.1 0.06 1.66 1.13 80 1008.0
20260506113542 42 116 2.6 8.7 0.07 1.66 1.13 80 1007.9
20260506113041 42 49 2.6 8.7 0.07 1.65 1.12 80 1007.8
20260506112541 42 25 2.6 7.0 0.08 1.64 1.12 80 1007.8
20260506112039 42 104 2.6 7.0 0.08 1.63 1.11 80 1007.9
20260506111539 42 38 2.6 7.0 0.09 1.63 1.11 80 1007.8
20260506111038 42 56 2.6 7.0 0.10 1.63 1.11 80 1007.8
20260506110539 42 50 3.5 7.0 0.10 1.62 1.10 80 1008.0
20260506110042 42 88 2.6 6.1 0.11 1.62 1.10 80 1007.8
20260506105537 42 55 2.6 4.3 0.12 1.61 1.09 80 1007.8
20260506105037 42 74 0.0 4.3 0.14 1.61 1.09 80 1007.9
20260506104537 42 67 0.9 4.3 0.15 1.60 1.08 80 1007.9
20260506104036 42 60 0.9 3.5 0.19 1.60 1.08 80 1007.9
20260506103537 42 70 2.6 5.2 0.21 1.59 1.07 80 1007.9
20260506103036 42 53 1.7 5.2 0.21 1.58 1.06 80 1008.0
20260506102536 42 58 0.9 3.5 0.19 1.56 1.04 80 1008.2
20260506102039 42 50 0.0 5.2 0.19 1.55 1.03 80 1008.2
20260506101536 42 87 0.0 5.2 0.19 1.54 1.02 80 1008.1
20260506101035 42 58 0.0 7.0 0.19 1.53 1.01 80 1008.0
20260506100535 42 77 1.7 7.0 0.18 1.52 1.00 80 1007.9
20260506100037 43 48 2.6 6.1 0.19 1.51 0.99 80 1007.7
20260506095534 43 56 1.7 6.1 0.18 1.49 0.97 79 1007.8
20260506095034 43 56 2.6 5.2 0.16 1.47 0.95 80 1007.8
20260506094532 43 27 0.9 4.3 0.15 1.45 0.93 80 1007.8
20260506094032 44 41 1.7 4.3 0.11 1.41 0.89 80 1007.6
20260506093530 44 68 0.0 7.8 0.09 1.38 0.86 80 1007.8
20260506093030 44 66 0.0 7.8 0.09 1.37 0.85 80 1007.5
20260506092532 44 68 1.7 6.1 0.09 1.36 0.84 80 1007.4
20260506092030 44 84 2.6 6.1 0.10 1.36 0.84 80 1007.3
20260506091530 44 101 3.5 7.8 0.09 1.35 0.83 80 1007.3
20260506091029 44 97 0.9 7.8 0.09 1.34 0.82 80 1007.6
20260506090527 44 103 4.3 7.8 0.09 1.33 0.81 80 1007.5
20260506090027 44 44 0.0 6.1 0.09 1.32 0.80 80 1007.8
20260506085526 44 37 2.6 6.1 0.10 1.31 0.79 80 1007.8
20260506085026 44 78 1.7 10.4 0.11 1.31 0.79 80 1007.7
20260506084535 44 89 1.7 8.7 0.11 1.30 0.78 80 1007.5
20260506084026 44 66 4.3 8.7 0.12 1.30 0.78 80 1007.4
20260506083529 44 65 4.3 8.7 0.13 1.29 0.77 80 1007.6
20260506083030 44 63 3.5 7.0 0.14 1.28 0.76 80 1007.7
20260506082528 45 21 1.7 7.0 0.15 1.27 0.75 80 1007.9
20260506082023 45 57 1.7 7.0 0.15 1.26 0.74 80 1008.0
20260506081522 45 66 2.6 6.1 0.17 1.26 0.74 80 1007.9
20260506081022 45 54 0.9 5.2 0.18 1.25 0.73 80 1008.0
20260506080521 45 41 0.9 5.2 0.18 1.23 0.71 80 1008.1